[[{"header":{"parameterUnit":"m.s-1","parameterCategory":2,"la1":30.2991,"la2":30.254,"lo1":-89.0895,"lo2":-89.0444,"dy":0.0017,"dx":0.0017,"nx":28,"ny":28,"refTime":"2024-07-11T03:00:00:Z","depth":"0","parameterNumber":2,"parameterNumberName":"U-component_of_CURRENTS"},"data":[0,0,0,0,0,0,0,0,0,0,0,0,0,0,0,0,0,0,0,0,0,0,0,0,0,0,0,0,0,0,0,0,0,0,0,0,0,0,0,0,0,0,0,0,0,0,0,0,0,0,0,0,0,0,0,0,0,0,0.1771,0.1772,0,0.1892,0.1893,0.1895,0.1921,0.192,0.192,0.1919,0.2057,0.2062,0.2066,0,0,0,0,0,0,0,0,0,0,0,0,0,0.1613,0.1616,0.1771,0.1772,0.1774,0.1892,0.1893,0.1895,0.1921,0.192,0.1919,0.1919,0.2056,0.2061,0.2067,0,0,0,0,0,0,0,0,0,0,0,0,0,0.1702,0.1617,0.177,0.1802,0.1806,0.1891,0.1893,0.1895,0.1922,0.192,0.1919,0.1918,0.2054,0.2061,0.2067,0.2132,0,0,0.2088,0.2091,0,0,0,0,0,0,0,0,0.1697,0.1708,0.1796,0.18,0.1805,0.1891,0.1889,0.1976,0.1922,0.1877,0.1919,0.1918,0.2005,0.2016,0.204,0.2139,0.2145,0.2088,0.2092,0.2095,0.2097,0,0,0,0,0,0,0,0.1691,0.1703,0.1818,0.1798,0.1803,0.1828,0.1838,0.1906,0.1946,0.1881,0.1883,0.1898,0.2007,0.2033,0.2043,0.2147,0.2088,0.2094,0.2098,0.2101,0.2242,0.2241,0,0,0,0,0,0,0.1677,0.1697,0.1814,0.1822,0.1748,0.1831,0.1843,0.1864,0.1945,0.1956,0.1899,0.1899,0.2022,0.2035,0.2048,0.2104,0.2095,0.2101,0.2105,0.2242,0.2241,0.2241,0,0,0,0,0,0,0.1673,0.1686,0.1809,0.1762,0.178,0.1835,0.1858,0.1867,0.1891,0.1959,0.197,0.1913,0.2022,0.2039,0.2094,0.2111,0.2104,0.211,0.2242,0.2242,0.2241,0.2233,0,0,0,0,0,0,0.1668,0.1684,0.1697,0.1761,0.1782,0.1863,0.186,0.187,0.1902,0.1903,0.1975,0.1987,0.2022,0.2083,0.21,0.212,0.2116,0.2242,0.2242,0.2241,0.2234,0.2233,0.2232,0,0,0,0,0,0.1662,0.1695,0.1698,0.1712,0.1797,0.1864,0.1877,0.1911,0.1904,0.1925,0.1956,0.1984,0.2091,0.209,0.2109,0.2131,0.2243,0.2242,0.2242,0.2235,0.2233,0.2232,0,0,0,0,0,0,0.1644,0.1703,0.1707,0.1757,0.1803,0.1869,0.1902,0.1913,0.1956,0.1956,0.1999,0.2014,0.2064,0.2095,0.2091,0.2164,0.2166,0.2169,0.2154,0.2153,0.2152,0.2177,0.2121,0,0,0,0,0,0.1642,0.1678,0.1732,0.1774,0.1797,0.1844,0.1874,0.1896,0.1942,0.1959,0.2002,0.2041,0.208,0.2112,0.2156,0.2214,0.2277,0.2232,0.2231,0.223,0.226,0.2344,0.2355,0.2239,0.2239,0.2239,0,0,0.1649,0.1686,0.1706,0.1771,0.1811,0.1869,0.186,0.1914,0.1955,0.1971,0.2035,0.2048,0.2092,0.2143,0.2168,0.2172,0.2297,0.2229,0.2228,0.226,0.2345,0.2357,0.2368,0.2239,0.2239,0.2239,0,0,0.1693,0.171,0.1758,0.1799,0.1859,0.189,0.1901,0.196,0.1976,0.2034,0.2039,0.206,0.2138,0.2163,0.2187,0.2211,0.2284,0.2212,0.2243,0.2323,0.2334,0.2345,0.245,0.2471,0.2216,0.2216,0.2216,0,0.1699,0.176,0.1783,0.1844,0.1879,0.1898,0.1955,0.1989,0.2052,0.2068,0.2053,0.2133,0.2154,0.2215,0.2206,0.2214,0.2282,0.2245,0.2325,0.2337,0.2348,0.2454,0.2476,0.2216,0.2216,0.2216,0.2216,0,0.1782,0.1828,0.1863,0.1937,0.1978,0.2029,0.2071,0.2101,0.2106,0.2132,0.2176,0.2194,0.2245,0.2231,0.2231,0.2305,0.2335,0.2312,0.2335,0.236,0.2469,0.2493,0.2215,0.2215,0.2215,0.2215,0,0,0.1796,0.19,0.191,0.1945,0.2022,0.2062,0.2124,0.2178,0.2213,0.2243,0.2291,0.2314,0.231,0.2335,0.2325,0.2371,0.2486,0.2375,0.2379,0.2493,0.2701,0.2666,0.2689,0.2481,0.2485,0.2488,0.2749,0,0.1848,0.1956,0.1997,0.2085,0.2133,0.2164,0.222,0.2266,0.229,0.2342,0.2345,0.239,0.2357,0.2367,0.2416,0.2464,0.2547,0.242,0.2649,0.2657,0.2633,0.2713,0.2587,0.2805,0.2773,0.2777,0.278,0,0.1902,0.1964,0.2058,0.2135,0.216,0.2217,0.228,0.2336,0.2403,0.242,0.2467,0.2481,0.2554,0.2504,0.267,0.2596,0.2668,0.27,0.2711,0.2704,0.2666,0.2771,0.285,0.275,0.2817,0.2814,0.2811,0,0.1872,0.1992,0.2056,0.209,0.2196,0.2232,0.2283,0.2354,0.2384,0.2476,0.25,0.2603,0.2646,0.2753,0.2814,0.2769,0.2993,0.2945,0.3001,0.3,0.2954,0.2942,0.2975,0.3098,0.3098,0.3097,0.3096,0,0.189,0.1935,0.2048,0.2085,0.2146,0.2227,0.2286,0.2345,0.2425,0.2468,0.254,0.2589,0.2706,0.2821,0.2891,0.3032,0.3082,0.3053,0.3074,0.2944,0.2929,0.2886,0.2809,0.3107,0.3104,0.3103,0.3101,0,0.1837,0.1917,0.1987,0.2104,0.2133,0.2174,0.2263,0.2307,0.2393,0.2457,0.2488,0.2619,0.278,0.2899,0.3083,0.3126,0.3169,0.3289,0.3138,0.3136,0.3065,0.2991,0.302,0.2942,0.3428,0.3429,0.3429,0,0.1819,0.1858,0.1972,0.2005,0.2056,0.2124,0.2166,0.2268,0.2315,0.2459,0.249,0.2662,0.2758,0.3034,0.3155,0.3344,0.321,0.3328,0.3202,0.3083,0.3019,0.2894,0.2815,0.3158,0.3157,0.3155,0.3154,0,0.1775,0.1817,0.1875,0.1947,0.1999,0.2054,0.2131,0.2156,0.2283,0.2349,0.2471,0.2563,0.2816,0.2942,0.317,0.3257,0.3139,0.3306,0.3224,0.2858,0.2688,0.2612,0.2982,0.3143,0.3144,0.3145,0.3145,0.3146,0.1725,0.1745,0.1826,0.1887,0.1939,0.1994,0.2013,0.2098,0.2166,0.2272,0.2404,0.2513,0.2703,0.2998,0.3078,0.3111,0.3089,0.3048,0.2997,0.2904,0.2724,0.3077,0.3212,0.3213,0.3215,0.3216,0.3217,0,0.1671,0.1712,0.1764,0.1836,0.1867,0.1926,0.1992,0.2004,0.2058,0.2187,0.2293,0.2431,0.2561,0.271,0.284,0.2805,0.2707,0.2739,0.252,0.2479,0.2852,0.2728,0.2711,0.2711,0.2712,0.2712,0.2712,0.2712,0.1643,0.1677,0.1717,0.1759,0.18,0.1817,0.1842,0.187,0.194,0.2011,0.2076,0.2177,0.2348,0.2504,0.2524,0.2491,0.2311,0.2235,0.2236,0.2461,0.2485,0.2507,0.2374,0.2283,0.2282,0.1779,0.1775,0.1772]},{"header":{"parameterUnit":"m.s-1","parameterCategory":2,"la1":30.2991,"la2":30.254,"lo1":-89.0895,"lo2":-89.0444,"dy":0.0017,"dx":0.0017,"nx":28,"ny":28,"refTime":"2024-07-11T03:00:00:Z","depth":"0","parameterNumber":3,"parameterNumberName":"V-component_of_CURRENTS"},"data":[0,0,0,0,0,0,0,0,0,0,0,0,0,0,0,0,0,0,0,0,0,0,0,0,0,0,0,0,0,0,0,0,0,0,0,0,0,0,0,0,0,0,0,0,0,0,0,0,0,0,0,0,0,0,0,0,0,0,-0.0201,-0.0202,0,-0.0278,-0.0279,-0.028,-0.0294,-0.0294,-0.0293,-0.0292,-0.0365,-0.0368,-0.037,0,0,0,0,0,0,0,0,0,0,0,0,0,-0.014,-0.0141,-0.0201,-0.0202,-0.0203,-0.0278,-0.0279,-0.0281,-0.0295,-0.0294,-0.0293,-0.0292,-0.0364,-0.0367,-0.0371,0,0,0,0,0,0,0,0,0,0,0,0,0,-0.0188,-0.0141,-0.0201,-0.0218,-0.022,-0.0278,-0.028,-0.0281,-0.0295,-0.0294,-0.0292,-0.0291,-0.0363,-0.0367,-0.0371,-0.0419,0,0,-0.0383,-0.0385,0,0,0,0,0,0,0,0,-0.0185,-0.019,-0.0215,-0.0217,-0.0219,-0.0274,-0.0285,-0.0326,-0.0295,-0.0268,-0.0292,-0.0291,-0.0334,-0.0341,-0.036,-0.0422,-0.0425,-0.0384,-0.0386,-0.0388,-0.0389,0,0,0,0,0,0,0,-0.0182,-0.0187,-0.0233,-0.0216,-0.0219,-0.0247,-0.0252,-0.0293,-0.0308,-0.027,-0.0271,-0.0278,-0.0336,-0.0356,-0.0362,-0.0426,-0.0384,-0.0387,-0.039,-0.0391,-0.0529,-0.053,0,0,0,0,0,0,-0.0167,-0.0184,-0.0231,-0.0235,-0.0198,-0.0248,-0.0254,-0.0259,-0.0307,-0.0313,-0.0279,-0.0278,-0.035,-0.0357,-0.0364,-0.0406,-0.0388,-0.0391,-0.0394,-0.0528,-0.0529,-0.053,0,0,0,0,0,0,-0.0165,-0.017,-0.0228,-0.021,-0.0219,-0.025,-0.0256,-0.0261,-0.028,-0.0314,-0.0319,-0.0292,-0.0349,-0.0359,-0.041,-0.0409,-0.0393,-0.0397,-0.0526,-0.0528,-0.053,-0.05,0,0,0,0,0,0,-0.0163,-0.0169,-0.0169,-0.0209,-0.022,-0.0263,-0.0257,-0.0263,-0.0286,-0.0286,-0.0327,-0.0333,-0.0349,-0.0405,-0.0414,-0.0414,-0.04,-0.0524,-0.0527,-0.0529,-0.0499,-0.0501,-0.0502,0,0,0,0,0,-0.0161,-0.0165,-0.0168,-0.0174,-0.0218,-0.0264,-0.0272,-0.0291,-0.0287,-0.0303,-0.0334,-0.0331,-0.0426,-0.041,-0.0421,-0.0421,-0.0523,-0.0526,-0.0529,-0.0499,-0.05,-0.0502,0,0,0,0,0,0,-0.0132,-0.0168,-0.0172,-0.0184,-0.0221,-0.0265,-0.0279,-0.0295,-0.0333,-0.033,-0.0358,-0.0367,-0.041,-0.0431,-0.0412,-0.0471,-0.0471,-0.0476,-0.0444,-0.0446,-0.0447,-0.0382,-0.0403,0,0,0,0,0,-0.0127,-0.0142,-0.018,-0.0191,-0.0207,-0.0245,-0.0264,-0.028,-0.0318,-0.0333,-0.0364,-0.0398,-0.0433,-0.045,-0.0489,-0.0528,-0.0493,-0.0536,-0.0537,-0.0537,-0.0495,-0.046,-0.0452,-0.054,-0.054,-0.054,0,0,-0.0116,-0.0139,-0.0145,-0.0187,-0.0214,-0.0234,-0.0254,-0.0286,-0.0296,-0.0337,-0.0367,-0.0409,-0.0448,-0.0487,-0.0507,-0.0502,-0.0498,-0.0541,-0.0541,-0.0497,-0.0461,-0.0452,-0.0444,-0.0542,-0.0541,-0.0541,0,0,-0.0105,-0.0126,-0.0133,-0.0164,-0.0205,-0.0232,-0.024,-0.029,-0.0305,-0.0352,-0.0375,-0.0409,-0.048,-0.0491,-0.0508,-0.0541,-0.0509,-0.0569,-0.0514,-0.0482,-0.0472,-0.0464,-0.0409,-0.0395,-0.0563,-0.0563,-0.0563,0,-0.0087,-0.0097,-0.0144,-0.016,-0.0172,-0.0226,-0.023,-0.0264,-0.0324,-0.0325,-0.0355,-0.042,-0.0468,-0.0473,-0.0491,-0.0536,-0.0505,-0.0502,-0.0477,-0.0468,-0.0459,-0.0405,-0.039,-0.0562,-0.0562,-0.0562,-0.0562,0,-0.0082,-0.0089,-0.0099,-0.0129,-0.0157,-0.0174,-0.022,-0.0245,-0.0274,-0.0296,-0.0321,-0.0385,-0.0402,-0.0445,-0.0482,-0.0454,-0.0447,-0.0483,-0.0458,-0.0447,-0.0393,-0.0378,-0.056,-0.0561,-0.0561,-0.0561,0,0,-0.004,-0.0081,-0.0083,-0.008,-0.0136,-0.0154,-0.0174,-0.0194,-0.0172,-0.0244,-0.0206,-0.0298,-0.031,-0.0329,-0.0377,-0.0364,-0.0306,-0.0395,-0.0394,-0.0311,-0.0207,-0.0226,-0.0211,-0.0337,-0.0334,-0.0332,-0.0191,0,-0.0013,-0.0019,-0.0051,-0.0048,-0.0052,-0.0096,-0.0099,-0.0125,-0.0149,-0.0134,-0.018,-0.0179,-0.0272,-0.0268,-0.0273,-0.0291,-0.0265,-0.0339,-0.0253,-0.0249,-0.0244,-0.0195,-0.0226,-0.0105,-0.0177,-0.0174,-0.0172,0,0.001,0.0004,0.0018,0.0017,0.0014,0.0012,0.0023,0.0012,0.0012,0.0003,0.0,-0.0031,-0.0022,-0.0105,-0.0086,-0.0127,-0.0152,-0.0173,-0.0169,-0.0174,-0.024,-0.0132,-0.0075,-0.0243,-0.0149,-0.0151,-0.0153,0,0.0069,0.0058,0.008,0.0073,0.0056,0.0072,0.007,0.0064,0.0086,0.0114,0.0151,0.0139,0.0164,0.013,0.0062,0.0004,0.0099,0.0013,-0.0018,-0.0019,-0.0018,-0.0023,-0.0082,0.005,0.0049,0.0049,0.0049,0,0.0113,0.0131,0.0116,0.0127,0.0172,0.014,0.0199,0.0196,0.0231,0.0293,0.0243,0.0308,0.0224,0.0243,0.0159,0.0141,0.0182,0.0037,0.0026,-0.0014,-0.002,-0.0146,-0.0223,0.0054,0.0053,0.0052,0.0051,0,0.0173,0.0161,0.019,0.0193,0.0202,0.0236,0.0273,0.032,0.0346,0.0438,0.0461,0.0476,0.0505,0.0424,0.0399,0.0288,0.0183,0.023,0.02,0.0183,-0.0041,-0.0115,-0.0084,-0.0143,0.0234,0.0234,0.0235,0,0.0206,0.0224,0.0245,0.0269,0.0276,0.0319,0.0357,0.0378,0.0435,0.0543,0.0607,0.0665,0.0708,0.0674,0.051,0.0415,0.025,0.0295,0.0157,-0.0016,-0.0106,-0.0156,-0.0213,0.0176,0.0176,0.0176,0.0176,0,0.0265,0.0273,0.0292,0.0342,0.0386,0.0439,0.0498,0.0562,0.0617,0.0713,0.0852,0.0906,0.0857,0.076,0.0598,0.048,0.0177,0.0289,0.012,-0.0126,-0.0189,-0.0264,0.0055,0.0175,0.0175,0.0175,0.0175,0.0175,0.0311,0.0338,0.0363,0.0415,0.0471,0.0558,0.0624,0.0708,0.0833,0.1,0.1037,0.1159,0.094,0.0717,0.0546,0.0162,0.0184,0.0006,-0.0052,-0.0073,-0.0187,0.0142,0.0224,0.0224,0.0225,0.0225,0.0225,0,0.0355,0.038,0.043,0.0499,0.0578,0.0595,0.0717,0.0804,0.0971,0.1144,0.1278,0.1237,0.0957,0.0638,0.0146,-0.0135,-0.0254,-0.0299,-0.0405,-0.0437,-0.0133,-0.0202,-0.0223,-0.0223,-0.0223,-0.0222,-0.0222,-0.0222,0.0379,0.0426,0.045,0.0579,0.0637,0.0757,0.0835,0.0981,0.1119,0.1344,0.144,0.1483,0.1187,0.0293,-0.0351,-0.0502,-0.0699,-0.0714,-0.0795,-0.0657,-0.0635,-0.0614,-0.0702,-0.0826,-0.0827,-0.1101,-0.1104,-0.1106]}],[{"header":{"parameterUnit":"m.s-1","parameterCategory":2,"la1":30.2991,"la2":30.254,"lo1":-89.0895,"lo2":-89.0444,"dy":0.0017,"dx":0.0017,"nx":28,"ny":28,"refTime":"2024-07-11T03:00:00:Z","depth":"2","parameterNumber":2,"parameterNumberName":"U-component_of_CURRENTS"},"data":[0,0,0,0,0,0,0,0,0,0,0,0,0,0,0,0,0,0,0,0,0,0,0,0,0,0,0,0,0,0,0,0,0,0,0,0,0,0,0,0,0,0,0,0,0,0,0,0,0,0,0,0,0,0,0,0,0,0,0.1172,0.1172,0,0.1126,0.1126,0.1125,0.1169,0.1171,0.1173,0.1174,0.1175,0.1173,0.1172,0,0,0,0,0,0,0,0,0,0,0,0,0,0.1301,0.1299,0.1172,0.1172,0.1171,0.1126,0.1126,0.1125,0.1169,0.1171,0.1173,0.1175,0.1175,0.1173,0.1171,0,0,0,0,0,0,0,0,0,0,0,0,0,0.125,0.1298,0.1173,0.1187,0.1188,0.1126,0.1126,0.1125,0.1169,0.1171,0.1174,0.1176,0.1176,0.1173,0.1171,0.1106,0,0,0.1164,0.1163,0,0,0,0,0,0,0,0,0.1253,0.1245,0.1185,0.1186,0.1187,0.1155,0.1171,0.1121,0.1168,0.1177,0.1174,0.1177,0.117,0.1168,0.1155,0.1106,0.1107,0.1164,0.1162,0.1161,0.1161,0,0,0,0,0,0,0,0.1256,0.1247,0.1155,0.1185,0.1185,0.1197,0.1192,0.1162,0.1161,0.1176,0.1179,0.1172,0.1171,0.1157,0.1155,0.1107,0.1164,0.1162,0.116,0.116,0.1112,0.1113,0,0,0,0,0,0,0.1257,0.125,0.1156,0.1154,0.1226,0.1192,0.1187,0.1164,0.1161,0.1162,0.117,0.1174,0.1159,0.1158,0.1155,0.1217,0.1161,0.1159,0.1158,0.1112,0.1112,0.1113,0,0,0,0,0,0,0.1259,0.1248,0.1158,0.1202,0.1191,0.1187,0.116,0.1161,0.1167,0.1155,0.1158,0.1178,0.1161,0.1159,0.1161,0.1213,0.1158,0.1156,0.1112,0.1112,0.1113,0.1252,0,0,0,0,0,0,0.1263,0.1249,0.1236,0.1201,0.1189,0.1142,0.1158,0.1159,0.1157,0.1163,0.1162,0.1164,0.1163,0.1164,0.1158,0.1208,0.1154,0.1112,0.1112,0.1112,0.1247,0.1257,0.1265,0,0,0,0,0,0.1267,0.1225,0.1235,0.1225,0.1169,0.1142,0.1137,0.1144,0.1156,0.1159,0.1168,0.1165,0.1162,0.1162,0.1155,0.1206,0.1112,0.1112,0.1112,0.1243,0.1255,0.1265,0,0,0,0,0,0,0.1258,0.1225,0.1235,0.1183,0.1179,0.115,0.1142,0.1145,0.1148,0.1164,0.1158,0.116,0.1184,0.1153,0.1153,0.1187,0.1138,0.1137,0.124,0.125,0.1259,0.1328,0.1152,0,0,0,0,0,0.1253,0.1225,0.1206,0.1168,0.1169,0.116,0.115,0.1159,0.1152,0.1157,0.1165,0.1165,0.1169,0.118,0.1168,0.1175,0.1212,0.12,0.1209,0.1218,0.1265,0.1364,0.139,0.1114,0.1114,0.1114,0,0,0.1232,0.1216,0.1196,0.1168,0.1165,0.1178,0.1161,0.1153,0.1188,0.1153,0.1203,0.1191,0.1173,0.1203,0.1211,0.1195,0.1309,0.1218,0.1226,0.127,0.1368,0.1396,0.1421,0.1114,0.1114,0.1114,0,0,0.1204,0.1176,0.1167,0.1173,0.1179,0.1181,0.1185,0.1182,0.1211,0.1236,0.1234,0.1264,0.1249,0.1278,0.1281,0.132,0.1346,0.1299,0.1419,0.1514,0.154,0.1564,0.1637,0.1666,0.1314,0.1314,0.1314,0,0.1192,0.1184,0.1159,0.1176,0.1195,0.1192,0.1219,0.1234,0.1242,0.1285,0.1274,0.1331,0.1301,0.1383,0.1402,0.1352,0.1404,0.1388,0.1536,0.1559,0.1581,0.165,0.1681,0.1321,0.132,0.132,0.1319,0,0.1185,0.1192,0.1187,0.1223,0.1234,0.1248,0.128,0.1316,0.135,0.1383,0.1475,0.1468,0.1524,0.1502,0.1467,0.1599,0.1584,0.1535,0.1529,0.1619,0.1683,0.1713,0.1331,0.1328,0.1326,0.1325,0,0,0.115,0.1178,0.1189,0.1233,0.1271,0.1282,0.1352,0.1425,0.1497,0.155,0.167,0.169,0.1724,0.173,0.1709,0.1783,0.195,0.1739,0.1741,0.1849,0.2176,0.2022,0.2038,0.1946,0.1952,0.1957,0.2158,0,0.1178,0.1216,0.1232,0.1303,0.1338,0.138,0.1448,0.1518,0.1581,0.1689,0.1759,0.1838,0.1802,0.1842,0.193,0.1923,0.2036,0.1901,0.204,0.2045,0.1929,0.207,0.1832,0.198,0.2187,0.2191,0.2195,0,0.1204,0.1233,0.1292,0.1379,0.1401,0.145,0.1581,0.1641,0.178,0.1842,0.1979,0.2017,0.2154,0.2094,0.2267,0.2189,0.2227,0.223,0.2237,0.2077,0.1946,0.192,0.2025,0.2243,0.2239,0.2236,0.2233,0,0.1227,0.1292,0.1346,0.1372,0.1456,0.1521,0.1584,0.1701,0.1774,0.1958,0.2034,0.2212,0.2295,0.2405,0.241,0.2372,0.2573,0.2509,0.2432,0.242,0.2237,0.2197,0.2693,0.2692,0.2692,0.2691,0.2691,0,0.1262,0.1322,0.1365,0.1401,0.1505,0.1555,0.168,0.177,0.1902,0.1998,0.213,0.2228,0.2381,0.2482,0.2509,0.2556,0.2674,0.2512,0.2487,0.2268,0.2231,0.2458,0.2428,0.2699,0.2697,0.2696,0.2694,0,0.1304,0.1318,0.1397,0.1481,0.1516,0.16,0.1721,0.1795,0.1921,0.2058,0.2125,0.2292,0.2426,0.2534,0.2678,0.2647,0.2704,0.2693,0.2408,0.2346,0.2477,0.2452,0.2684,0.2681,0.2678,0.2676,0.2674,0,0.1329,0.1363,0.145,0.1486,0.1536,0.1643,0.1703,0.1819,0.1876,0.2059,0.2112,0.2296,0.2382,0.2539,0.252,0.2596,0.2688,0.242,0.2298,0.2537,0.249,0.2468,0.2447,0.2119,0.2113,0.2108,0.2104,0,0.1381,0.1407,0.145,0.151,0.1572,0.1651,0.1733,0.1768,0.1887,0.1974,0.2072,0.2154,0.2288,0.2238,0.231,0.2306,0.2383,0.2314,0.2703,0.2117,0.201,0.196,0.1958,0.2058,0.2063,0.2066,0.2069,0.207,0.1399,0.1433,0.1443,0.151,0.1571,0.1604,0.1631,0.1686,0.1738,0.1784,0.1893,0.1935,0.1998,0.1968,0.1943,0.1944,0.2101,0.2038,0.2053,0.2074,0.1932,0.1821,0.1809,0.1812,0.1815,0.1817,0.1819,0,0.1349,0.1371,0.1431,0.1455,0.1479,0.1552,0.1593,0.1567,0.1563,0.1617,0.1636,0.1507,0.1482,0.1614,0.1509,0.1502,0.1487,0.1491,0.1462,0.1506,0.1546,0.1377,0.1108,0.1106,0.1104,0.1103,0,0,0.1293,0.1291,0.1313,0.1311,0.1362,0.1359,0.1366,0.1354,0.1362,0.1276,0.1271,0.1313,0.1489,0.1242,0.122,0.1164,0.1327,0.1117,0.1678,0.1683,0.1721,0.1843,0.1628,0,0,0,0,0]},{"header":{"parameterUnit":"m.s-1","parameterCategory":2,"la1":30.2991,"la2":30.254,"lo1":-89.0895,"lo2":-89.0444,"dy":0.0017,"dx":0.0017,"nx":28,"ny":28,"refTime":"2024-07-11T03:00:00:Z","depth":"2","parameterNumber":3,"parameterNumberName":"V-component_of_CURRENTS"},"data":[0,0,0,0,0,0,0,0,0,0,0,0,0,0,0,0,0,0,0,0,0,0,0,0,0,0,0,0,0,0,0,0,0,0,0,0,0,0,0,0,0,0,0,0,0,0,0,0,0,0,0,0,0,0,0,0,0,0,-0.038,-0.0381,0,-0.0416,-0.0416,-0.0416,-0.0432,-0.0433,-0.0433,-0.0434,-0.045,-0.045,-0.045,0,0,0,0,0,0,0,0,0,0,0,0,0,-0.0274,-0.0276,-0.038,-0.0381,-0.0382,-0.0416,-0.0416,-0.0416,-0.0432,-0.0433,-0.0434,-0.0434,-0.045,-0.045,-0.045,0,0,0,0,0,0,0,0,0,0,0,0,0,-0.0311,-0.0276,-0.038,-0.0398,-0.04,-0.0416,-0.0416,-0.0416,-0.0432,-0.0433,-0.0434,-0.0434,-0.045,-0.045,-0.045,-0.0436,0,0,-0.045,-0.045,0,0,0,0,0,0,0,0,-0.0309,-0.0314,-0.0394,-0.0397,-0.04,-0.0425,-0.0385,-0.0424,-0.0432,-0.0414,-0.0434,-0.0435,-0.0443,-0.0444,-0.0441,-0.0437,-0.0438,-0.045,-0.045,-0.045,-0.045,0,0,0,0,0,0,0,-0.0306,-0.0313,-0.0389,-0.0396,-0.0399,-0.0387,-0.0393,-0.0392,-0.042,-0.0416,-0.0419,-0.0431,-0.0444,-0.0441,-0.0442,-0.0438,-0.045,-0.045,-0.045,-0.045,-0.0465,-0.0465,0,0,0,0,0,0,-0.0315,-0.0311,-0.0388,-0.039,-0.0361,-0.0389,-0.0396,-0.0412,-0.042,-0.0424,-0.043,-0.0432,-0.0441,-0.0442,-0.0443,-0.0451,-0.045,-0.045,-0.045,-0.0464,-0.0465,-0.0465,0,0,0,0,0,0,-0.0313,-0.0322,-0.0386,-0.0355,-0.0363,-0.0391,-0.0409,-0.0412,-0.0417,-0.0433,-0.0435,-0.0434,-0.0442,-0.0443,-0.0442,-0.0451,-0.045,-0.045,-0.0464,-0.0465,-0.0465,-0.0452,0,0,0,0,0,0,-0.0309,-0.0321,-0.0329,-0.0356,-0.0366,-0.0395,-0.0409,-0.0413,-0.0426,-0.0428,-0.0436,-0.0438,-0.0442,-0.0442,-0.0442,-0.0451,-0.045,-0.0463,-0.0464,-0.0465,-0.0452,-0.0452,-0.0452,0,0,0,0,0,-0.0306,-0.0317,-0.0329,-0.0338,-0.0378,-0.0396,-0.0398,-0.0417,-0.0426,-0.0423,-0.0429,-0.0438,-0.0447,-0.0441,-0.0442,-0.0451,-0.0463,-0.0464,-0.0465,-0.0452,-0.0452,-0.0452,0,0,0,0,0,0,-0.0275,-0.0321,-0.0334,-0.036,-0.0377,-0.0401,-0.0405,-0.0417,-0.0419,-0.0422,-0.0431,-0.0433,-0.0436,-0.0445,-0.0439,-0.0459,-0.0461,-0.0462,-0.0451,-0.0452,-0.0452,-0.0438,-0.045,0,0,0,0,0,-0.0274,-0.0295,-0.033,-0.0349,-0.0358,-0.0379,-0.0388,-0.0402,-0.0414,-0.0416,-0.0423,-0.0433,-0.0438,-0.0446,-0.0447,-0.0453,-0.0447,-0.0464,-0.0464,-0.0464,-0.0455,-0.0452,-0.0451,-0.0468,-0.0468,-0.0468,0,0,-0.027,-0.0297,-0.0311,-0.0344,-0.0358,-0.0362,-0.0385,-0.0401,-0.0403,-0.0416,-0.0416,-0.0426,-0.0438,-0.0444,-0.0448,-0.0454,-0.0457,-0.0465,-0.0465,-0.0455,-0.0453,-0.0451,-0.045,-0.0469,-0.0469,-0.0468,0,0,-0.0266,-0.0294,-0.0306,-0.0316,-0.0343,-0.0353,-0.0359,-0.0382,-0.0391,-0.0395,-0.0407,-0.0419,-0.0428,-0.044,-0.0447,-0.0449,-0.0451,-0.0461,-0.0457,-0.0455,-0.0453,-0.0451,-0.0437,-0.0434,-0.0469,-0.0469,-0.0469,0,-0.026,-0.0279,-0.0308,-0.0314,-0.032,-0.0348,-0.0347,-0.0358,-0.0377,-0.0378,-0.0394,-0.0405,-0.0425,-0.0427,-0.0441,-0.0448,-0.0442,-0.0453,-0.0453,-0.0451,-0.045,-0.0436,-0.0433,-0.0469,-0.0469,-0.0469,-0.0469,0,-0.0259,-0.027,-0.0275,-0.0291,-0.0297,-0.0303,-0.0323,-0.0327,-0.0343,-0.0355,-0.0361,-0.0383,-0.0388,-0.0412,-0.0431,-0.0436,-0.0433,-0.0445,-0.0448,-0.0447,-0.0433,-0.043,-0.0468,-0.0468,-0.0469,-0.0469,0,0,-0.025,-0.0273,-0.027,-0.0265,-0.0285,-0.0284,-0.0289,-0.0295,-0.0283,-0.0315,-0.0293,-0.0343,-0.0354,-0.0364,-0.039,-0.0411,-0.041,-0.0431,-0.0431,-0.0409,-0.0394,-0.0461,-0.0464,-0.0422,-0.0422,-0.0422,-0.0387,0,-0.0237,-0.0237,-0.0253,-0.0236,-0.0231,-0.0249,-0.0242,-0.025,-0.0258,-0.024,-0.0278,-0.0265,-0.0336,-0.0329,-0.0364,-0.0381,-0.0402,-0.0417,-0.0406,-0.0405,-0.0458,-0.0463,-0.0409,-0.038,-0.0384,-0.0384,-0.0383,0,-0.0218,-0.022,-0.0207,-0.0197,-0.0195,-0.0185,-0.0164,-0.0163,-0.0157,-0.0161,-0.0169,-0.0181,-0.0202,-0.0257,-0.0304,-0.0309,-0.0355,-0.0385,-0.0384,-0.0447,-0.0467,-0.0384,-0.0374,-0.0378,-0.0379,-0.0379,-0.0379,0,-0.0175,-0.0177,-0.0161,-0.016,-0.0158,-0.0146,-0.0139,-0.0135,-0.0113,-0.0092,-0.0059,-0.0095,-0.0075,-0.0149,-0.0245,-0.0259,-0.0293,-0.0309,-0.0411,-0.0415,-0.0367,-0.0369,-0.0345,-0.0345,-0.0346,-0.0346,-0.0346,0,-0.0147,-0.0126,-0.0136,-0.0123,-0.0081,-0.0098,-0.005,-0.0047,-0.0018,0.0031,-0.0005,0.003,-0.0049,-0.0087,-0.0194,-0.0299,-0.0253,-0.0405,-0.0415,-0.0364,-0.0366,-0.0365,-0.0368,-0.0344,-0.0345,-0.0345,-0.0345,0,-0.0093,-0.0107,-0.0075,-0.0069,-0.0058,-0.0022,0.0017,0.0053,0.0069,0.0143,0.0163,0.0154,0.0108,0.0001,-0.0091,-0.0214,-0.0319,-0.0374,-0.0312,-0.0318,-0.0445,-0.0448,-0.0448,-0.0451,-0.0452,-0.0454,-0.0455,0,-0.0066,-0.005,-0.0021,0.0006,0.0014,0.0057,0.0093,0.0107,0.0149,0.0208,0.0255,0.0246,0.0243,0.0074,-0.0114,-0.0281,-0.0332,-0.0384,-0.0424,-0.0449,-0.0457,-0.0457,-0.0457,-0.0336,-0.0336,-0.0336,-0.0336,0,-0.001,-0.0001,0.002,0.0068,0.0111,0.0168,0.0215,0.0268,0.0299,0.0372,0.0439,0.0448,0.0299,0.0151,-0.0108,-0.0235,-0.0356,-0.0397,-0.0406,-0.0349,-0.0349,-0.0356,-0.0358,-0.0338,-0.0338,-0.0337,-0.0337,-0.0337,0.0032,0.0058,0.0075,0.0124,0.0186,0.0264,0.0325,0.0394,0.0492,0.0598,0.0566,0.0587,0.0383,0.0086,-0.0125,-0.0346,-0.0361,-0.0448,-0.0444,-0.044,-0.0465,-0.0471,-0.0485,-0.0486,-0.0487,-0.0487,-0.0487,0,0.0049,0.0071,0.0123,0.0178,0.0256,0.0284,0.0395,0.0481,0.0622,0.0693,0.0751,0.0579,0.0391,0.0157,-0.0157,-0.0379,-0.0356,-0.0449,-0.0363,-0.0362,-0.036,-0.0378,-0.0376,-0.0376,-0.0377,-0.0377,0,0,0.005,0.0077,0.0095,0.0208,0.0277,0.0395,0.0473,0.0639,0.0726,0.0829,0.0829,0.0757,0.0461,0.0245,-0.0026,-0.0191,-0.0223,-0.0221,-0.029,-0.0155,-0.015,-0.0344,-0.0369,0,0,0,0,0]}],[{"header":{"parameterUnit":"m.s-1","parameterCategory":2,"la1":30.2991,"la2":30.254,"lo1":-89.0895,"lo2":-89.0444,"dy":0.0017,"dx":0.0017,"nx":28,"ny":28,"refTime":"2024-07-11T03:00:00:Z","depth":"4","parameterNumber":2,"parameterNumberName":"U-component_of_CURRENTS"},"data":[0,0,0,0,0,0,0,0,0,0,0,0,0,0,0,0,0,0,0,0,0,0,0,0,0,0,0,0,0,0,0,0,0,0,0,0,0,0,0,0,0,0,0,0,0,0,0,0,0,0,0,0,0,0,0,0,0,0,0.0277,0.0277,0,0.0275,0.0275,0.0275,0.0316,0.0318,0.0319,0.032,0.0368,0.0368,0.0368,0,0,0,0,0,0,0,0,0,0,0,0,0,0.027,0.027,0.0277,0.0277,0.0277,0.0275,0.0275,0.0275,0.0316,0.0318,0.0319,0.0321,0.0368,0.0368,0.0368,0,0,0,0,0,0,0,0,0,0,0,0,0,0.027,0.027,0.0277,0.0298,0.03,0.0275,0.0275,0.0275,0.0316,0.0318,0.032,0.0321,0.0368,0.0368,0.0368,0.0333,0,0,0.0369,0.0369,0,0,0,0,0,0,0,0,0.027,0.027,0.0295,0.0297,0.0299,0.0299,0.029,0.0297,0.0315,0.0309,0.032,0.0322,0.0349,0.0351,0.0344,0.0335,0.0337,0.0369,0.0369,0.0369,0.0369,0,0,0,0,0,0,0,0.027,0.027,0.0275,0.0295,0.0297,0.0292,0.0295,0.0291,0.0319,0.0309,0.0313,0.0314,0.0351,0.0344,0.0346,0.0338,0.0369,0.0369,0.0369,0.0369,0.0447,0.0449,0,0,0,0,0,0,0.0273,0.027,0.0275,0.0275,0.029,0.0291,0.0294,0.0296,0.0318,0.0323,0.0312,0.0316,0.0342,0.0345,0.0348,0.0429,0.0369,0.0369,0.037,0.0446,0.0448,0.045,0,0,0,0,0,0,0.0273,0.0273,0.0275,0.0274,0.0274,0.029,0.0292,0.0295,0.034,0.0319,0.0326,0.036,0.0344,0.0347,0.0405,0.0427,0.037,0.037,0.0443,0.0446,0.0449,0.0514,0,0,0,0,0,0,0.0273,0.0273,0.0281,0.0274,0.0274,0.0285,0.029,0.0294,0.0335,0.0341,0.0361,0.0364,0.0346,0.0405,0.0406,0.0426,0.037,0.0441,0.0445,0.0448,0.0509,0.0519,0.0527,0,0,0,0,0,0.0272,0.0274,0.0282,0.0283,0.0283,0.0286,0.0286,0.0302,0.0336,0.0352,0.0391,0.0367,0.0428,0.0408,0.0407,0.0428,0.0439,0.0444,0.0448,0.0505,0.0517,0.0526,0,0,0,0,0,0,0.0277,0.0278,0.0287,0.029,0.0301,0.0295,0.0308,0.0332,0.0372,0.0405,0.0395,0.0401,0.0458,0.0441,0.0419,0.0464,0.0427,0.0432,0.0471,0.0482,0.049,0.0478,0.037,0,0,0,0,0,0.028,0.0289,0.0288,0.0298,0.0305,0.032,0.033,0.0356,0.0383,0.0405,0.0428,0.0452,0.0463,0.0477,0.0488,0.0511,0.0502,0.0525,0.0534,0.0541,0.0534,0.0558,0.0568,0.0464,0.0464,0.0464,0,0,0.0284,0.0289,0.0294,0.0301,0.0311,0.032,0.0332,0.0373,0.0404,0.0403,0.0474,0.0493,0.0482,0.0516,0.0537,0.0511,0.057,0.0547,0.0553,0.0541,0.0564,0.0573,0.0582,0.0467,0.0467,0.0466,0,0,0.0287,0.0306,0.0308,0.0318,0.0349,0.0359,0.0386,0.0421,0.0462,0.0519,0.0534,0.058,0.0596,0.0595,0.0589,0.0653,0.0623,0.0659,0.0682,0.0706,0.0714,0.0721,0.0734,0.0742,0.0653,0.0653,0.0653,0,0.0298,0.0298,0.0311,0.0316,0.0332,0.0384,0.04,0.0435,0.0499,0.0539,0.0557,0.0615,0.0623,0.0641,0.0666,0.067,0.0677,0.0639,0.0716,0.0723,0.0728,0.074,0.0747,0.0657,0.0656,0.0656,0.0656,0,0.0288,0.0303,0.0311,0.0332,0.0351,0.0387,0.0428,0.0494,0.056,0.0591,0.0667,0.0684,0.071,0.0721,0.0709,0.0754,0.0744,0.0732,0.0684,0.0742,0.0752,0.0758,0.0662,0.0661,0.066,0.0659,0,0,0.0298,0.03,0.0313,0.0321,0.0375,0.039,0.0462,0.0522,0.0587,0.0651,0.0707,0.0741,0.0772,0.0769,0.0772,0.0789,0.0849,0.0781,0.0781,0.0785,0.0902,0.083,0.083,0.0854,0.0856,0.0857,0.0895,0,0.03,0.0292,0.0309,0.0339,0.0344,0.0415,0.047,0.0546,0.0621,0.0695,0.0731,0.0785,0.078,0.0809,0.0827,0.085,0.0868,0.0839,0.0852,0.0852,0.0773,0.0835,0.0861,0.09,0.0901,0.0902,0.0903,0,0.0302,0.0294,0.03,0.0344,0.0359,0.0401,0.0513,0.0572,0.0682,0.0739,0.0796,0.0829,0.0874,0.0861,0.0911,0.0897,0.0905,0.0911,0.0912,0.082,0.0791,0.0828,0.0914,0.0913,0.0912,0.0912,0.0911,0,0.0295,0.0309,0.0312,0.0323,0.0371,0.0427,0.049,0.0605,0.0674,0.0779,0.0838,0.0881,0.0934,0.0941,0.0971,0.095,0.1018,0.0986,0.0922,0.0917,0.0939,0.0931,0.1014,0.1014,0.1014,0.1014,0.1014,0,0.0302,0.0315,0.0316,0.0321,0.037,0.0427,0.0527,0.0602,0.0718,0.0786,0.0866,0.0896,0.0963,0.1008,0.0995,0.0988,0.1042,0.0932,0.0925,0.0968,0.0963,0.0944,0.0935,0.1016,0.1015,0.1015,0.1015,0,0.0316,0.0307,0.0303,0.0339,0.0365,0.0413,0.054,0.0605,0.0735,0.0824,0.086,0.095,0.0984,0.1037,0.1065,0.1034,0.1019,0.1001,0.1058,0.1053,0.089,0.0884,0.0914,0.0912,0.091,0.0909,0.0907,0,0.0315,0.0311,0.0307,0.0309,0.0339,0.0418,0.0476,0.0601,0.0658,0.0817,0.0831,0.0931,0.0968,0.0969,0.0998,0.0996,0.0976,0.0992,0.0918,0.0891,0.0881,0.0879,0.0876,0.0904,0.0904,0.0903,0.0903,0,0.0316,0.0316,0.0315,0.031,0.0345,0.0367,0.0457,0.049,0.0628,0.0748,0.0798,0.0839,0.0883,0.0887,0.094,0.0912,0.0991,0.0972,0.0974,0.0904,0.088,0.0871,0.0871,0.0897,0.0897,0.0898,0.0898,0,0.0328,0.032,0.0311,0.0316,0.0335,0.0317,0.0358,0.0421,0.0495,0.0676,0.0661,0.0759,0.0845,0.084,0.0846,0.0866,0.0822,0.0801,0.0811,0.0819,0.0769,0.0722,0.0691,0,0,0,0,0,0.0327,0.0318,0.0315,0.0305,0.0322,0.032,0.0345,0.0384,0.0503,0.0522,0.0611,0.0634,0.0685,0.0701,0.0694,0.0759,0.0806,0.0746,0.0781,0.0861,0.0869,0.0819,0,0,0,0,0,0,0.0323,0.0326,0.0309,0.0302,0.0299,0.0303,0.0292,0.0348,0.0356,0.0483,0.049,0.062,0.0641,0.0708,0.07,0.0711,0.0721,0.0811,0.0809,0.0857,0.0864,0.087,0.0821,0,0,0,0,0]},{"header":{"parameterUnit":"m.s-1","parameterCategory":2,"la1":30.2991,"la2":30.254,"lo1":-89.0895,"lo2":-89.0444,"dy":0.0017,"dx":0.0017,"nx":28,"ny":28,"refTime":"2024-07-11T03:00:00:Z","depth":"4","parameterNumber":3,"parameterNumberName":"V-component_of_CURRENTS"},"data":[0,0,0,0,0,0,0,0,0,0,0,0,0,0,0,0,0,0,0,0,0,0,0,0,0,0,0,0,0,0,0,0,0,0,0,0,0,0,0,0,0,0,0,0,0,0,0,0,0,0,0,0,0,0,0,0,0,0,0.035,0.0351,0,0.0373,0.0374,0.0374,0.0389,0.0389,0.0389,0.0389,0.0438,0.0439,0.044,0,0,0,0,0,0,0,0,0,0,0,0,0,0.0316,0.0317,0.035,0.0351,0.0351,0.0373,0.0374,0.0374,0.0389,0.0389,0.0389,0.0389,0.0437,0.0439,0.044,0,0,0,0,0,0,0,0,0,0,0,0,0,0.0334,0.0317,0.035,0.0361,0.0362,0.0373,0.0374,0.0374,0.0389,0.0389,0.0389,0.0389,0.0437,0.0439,0.044,0.0448,0,0,0.0446,0.0447,0,0,0,0,0,0,0,0,0.0333,0.0335,0.0359,0.036,0.0362,0.0379,0.0379,0.04,0.0389,0.0378,0.0389,0.0389,0.042,0.0424,0.0427,0.045,0.0452,0.0446,0.0447,0.0448,0.0448,0,0,0,0,0,0,0,0.0332,0.0334,0.0359,0.036,0.0361,0.0364,0.0367,0.0383,0.0398,0.0379,0.038,0.0383,0.0421,0.0425,0.0428,0.0453,0.0446,0.0448,0.0449,0.0449,0.0456,0.0455,0,0,0,0,0,0,0.0329,0.0333,0.0358,0.036,0.0348,0.0364,0.0367,0.0373,0.0398,0.0401,0.0383,0.0384,0.0422,0.0426,0.043,0.0426,0.0448,0.0449,0.0451,0.0457,0.0455,0.0455,0,0,0,0,0,0,0.0329,0.0332,0.0357,0.0347,0.0351,0.0365,0.0371,0.0373,0.0393,0.04,0.0405,0.0403,0.0422,0.0427,0.0463,0.0429,0.045,0.0452,0.0458,0.0456,0.0455,0.0427,0,0,0,0,0,0,0.0328,0.0331,0.0339,0.0347,0.0351,0.0377,0.0371,0.0373,0.0394,0.0396,0.0419,0.0422,0.0423,0.046,0.0464,0.0431,0.0453,0.0459,0.0457,0.0455,0.0429,0.0425,0.0422,0,0,0,0,0,0.0326,0.0337,0.0339,0.0342,0.0359,0.0378,0.0381,0.0391,0.0395,0.0409,0.0426,0.0422,0.045,0.0463,0.0467,0.0434,0.046,0.0458,0.0456,0.0431,0.0426,0.0422,0,0,0,0,0,0,0.0323,0.034,0.0342,0.0357,0.0372,0.0381,0.0396,0.0402,0.0426,0.0435,0.0438,0.0443,0.0452,0.0456,0.0468,0.0427,0.0443,0.0442,0.0423,0.0418,0.0414,0.0383,0.0455,0,0,0,0,0,0.0325,0.0347,0.0354,0.0372,0.0378,0.039,0.0401,0.0412,0.043,0.0441,0.0448,0.045,0.0443,0.0446,0.0451,0.045,0.0413,0.0421,0.0417,0.0414,0.0391,0.0316,0.0302,0.0448,0.0448,0.0448,0,0,0.0328,0.0344,0.0354,0.0374,0.0387,0.0402,0.0398,0.0426,0.0434,0.0444,0.0461,0.0453,0.0444,0.0433,0.0433,0.0435,0.0355,0.0412,0.0409,0.0386,0.0312,0.0298,0.0285,0.0446,0.0447,0.0447,0,0,0.0346,0.036,0.0379,0.0394,0.042,0.0429,0.044,0.0454,0.0456,0.0469,0.0463,0.0438,0.0447,0.0414,0.04,0.038,0.0345,0.0376,0.0324,0.0252,0.0239,0.0227,0.0168,0.015,0.0364,0.0364,0.0364,0,0.0344,0.0374,0.0388,0.0409,0.0423,0.0442,0.046,0.0464,0.0486,0.0469,0.0475,0.0421,0.0424,0.0369,0.0348,0.0368,0.0325,0.0346,0.0245,0.0233,0.0221,0.0162,0.0144,0.0362,0.0363,0.0363,0.0363,0,0.0368,0.0398,0.0414,0.0446,0.046,0.0489,0.0492,0.0502,0.0498,0.0473,0.0424,0.0402,0.035,0.0339,0.0337,0.0243,0.0241,0.0257,0.0255,0.0204,0.0147,0.0128,0.036,0.0361,0.0361,0.0362,0,0,0.0348,0.0417,0.0423,0.0448,0.0486,0.05,0.0511,0.0503,0.0485,0.0455,0.0395,0.0343,0.029,0.0268,0.0243,0.0172,0.0057,0.0167,0.0164,0.0104,-0.0108,-0.0013,-0.0024,0.0051,0.0047,0.0044,-0.0112,0,0.0364,0.0418,0.0442,0.0489,0.0516,0.053,0.0534,0.0524,0.0491,0.0439,0.0357,0.0297,0.0274,0.0229,0.0149,0.0086,0.0003,0.0097,-0.0046,-0.0051,0.0036,-0.0044,0.0033,-0.0126,-0.0131,-0.0134,-0.0136,0,0.0366,0.0415,0.0464,0.0516,0.0524,0.0546,0.0542,0.0539,0.0466,0.0424,0.032,0.0257,0.0129,0.0128,-0.0057,0.0001,-0.0072,-0.0121,-0.0127,-0.0048,0.0008,-0.0066,-0.0171,-0.0168,-0.0165,-0.0163,-0.0161,0,0.0342,0.0418,0.0466,0.0486,0.0543,0.0554,0.0567,0.0527,0.0509,0.039,0.0348,0.0188,0.0112,-0.0024,-0.0125,-0.0116,-0.0303,-0.0295,-0.0283,-0.0277,-0.0302,-0.0287,-0.044,-0.044,-0.0439,-0.0439,-0.0438,0,0.0337,0.0375,0.0467,0.0489,0.054,0.0554,0.0557,0.0538,0.0482,0.0444,0.0324,0.0256,0.0068,-0.0045,-0.0156,-0.027,-0.0336,-0.0322,-0.0323,-0.0306,-0.0291,-0.0315,-0.0298,-0.0445,-0.0443,-0.0442,-0.0441,0,0.0299,0.036,0.0415,0.0494,0.0533,0.0549,0.0589,0.058,0.0522,0.0467,0.0424,0.0277,0.0126,-0.0018,-0.0224,-0.0279,-0.0407,-0.0421,-0.0392,-0.0382,-0.0338,-0.0321,-0.0478,-0.0476,-0.0475,-0.0473,-0.0472,0,0.0292,0.0325,0.0421,0.0461,0.0506,0.0555,0.06,0.0595,0.0579,0.049,0.0461,0.0312,0.0211,-0.0031,-0.0168,-0.0372,-0.0371,-0.0447,-0.042,-0.0364,-0.0349,-0.0334,-0.0319,-0.047,-0.047,-0.0469,-0.0469,0,0.0288,0.0314,0.0358,0.0445,0.0514,0.057,0.062,0.0611,0.059,0.0577,0.0454,0.032,0.0179,-0.0018,-0.0144,-0.0285,-0.0415,-0.0432,-0.0437,-0.0412,-0.0355,-0.0339,-0.0326,-0.0464,-0.0464,-0.0465,-0.0465,0,0.0285,0.0307,0.0367,0.0436,0.0507,0.0541,0.0569,0.0575,0.0569,0.0497,0.0466,0.0303,0.0213,0.003,-0.0094,-0.021,-0.025,-0.0299,-0.0312,-0.0319,-0.0197,-0.0097,-0.0156,0,0,0,0,0,0.0299,0.0324,0.037,0.044,0.0487,0.0538,0.0577,0.0593,0.0613,0.0536,0.0492,0.0363,0.0163,0.0066,-0.0043,-0.0065,-0.0264,-0.0191,-0.0327,-0.0435,-0.0441,-0.0312,0,0,0,0,0,0,0.0314,0.0351,0.0367,0.0424,0.0466,0.0536,0.0547,0.0557,0.0501,0.0494,0.0376,0.037,0.0164,0.0232,-0.0033,-0.0064,-0.0159,-0.0267,-0.0268,-0.0431,-0.0437,-0.0441,-0.0311,0,0,0,0,0]}]]